Location: Kitt Peak
(31.9639°N, 111.5992°W)
Time: 11:04:23
(UTC-07:00)

Hubble Space Telescope - Visible Passes

Search period start: 29 May 2024 00:00
Search period end: 08 June 2024 00:00
Orbit: 511 x 515 km, 28.5° (Epoch: 29 May)

Date Brightness Start Highest point End Pass type
(mag) Time Alt. Az. Time Alt. Az. Time Alt. Az.
29 May 1.2 21:22:37 10° W 21:25:52 44° SW 21:25:52 44° SW visible
30 May 0.9 21:03:49 10° W 21:07:40 48° S 21:08:07 45° SSE visible
31 May 1.0 20:45:02 10° W 20:48:51 46° S 20:50:17 31° SE visible
01 Jun 1.2 20:26:13 10° W 20:30:01 44° S 20:32:25 20° SE visible
02 Jun 1.3 20:07:24 10° W 20:11:10 41° S 20:14:31 12° ESE visible
02 Jun 3.1 21:48:35 10° WSW 21:49:20 13° WSW 21:49:20 13° WSW visible
03 Jun 2.9 21:29:57 10° WSW 21:31:25 15° SW 21:31:25 15° SW visible
04 Jun 2.8 21:11:23 10° WSW 21:13:30 15° SSW 21:13:30 15° SSW visible
05 Jun 2.9 20:52:55 10° SW 20:54:43 13° SSW 20:55:36 12° S visible
06 Jun 3.1 20:34:42 10° SW 20:35:47 11° SSW 20:36:53 10° S visible
